Location: Newark
(45.5000°N, 11.4167°E)
Time: 19:50:28
(UTC+00:00)

Transit 2A Rocket - Visible Passes

Search period start: 25 August 2019 00:00
Search period end: 04 September 2019 00:00
Orbit: 591 x 913 km, 66.7° (Epoch: 25 August)

Date Brightness Start Highest point End Pass type
(mag) Time Alt. Az. Time Alt. Az. Time Alt. Az.
25 Aug 7.1 01:14:23 10° N 01:18:03 22° NE 01:21:31 10° E visible
25 Aug 4.6 02:56:30 10° NW 03:00:59 56° WSW 03:05:11 10° SSE visible
25 Aug 7.4 19:15:45 10° W 19:20:21 26° NW 19:24:40 10° NNE visible
26 Aug 7.6 00:32:22 10° N 00:35:07 15° NE 00:37:46 10° ENE visible
26 Aug 4.6 02:13:54 10° NNW 02:18:32 81° ENE 02:22:50 10° SE visible
26 Aug 6.8 18:32:21 10° WSW 18:37:35 38° NW 18:42:26 10° NNE visible
26 Aug 8.2 20:20:35 10° NW 20:21:36 10° NNW 20:22:37 10° NNW visible
26 Aug 7.8 23:50:54 10° NNE 23:52:04 11° NNE 23:53:13 10° NE visible
27 Aug 5.5 01:31:28 10° NNW 01:35:55 46° NE 01:40:07 10° SE visible
27 Aug 5.7 03:14:46 10° WNW 03:18:05 21° WSW 03:20:59 11° SSW visible
27 Aug 7.9 19:35:38 10° WNW 19:38:32 14° NNW 19:41:19 10° N visible
28 Aug 6.4 00:49:10 10° NNW 00:53:13 29° NE 00:55:01 22° E visible
28 Aug 5.4 02:31:40 10° NW 02:34:43 32° W 02:34:43 32° W visible
28 Aug 7.6 18:51:34 10° W 18:55:34 20° NW 18:59:21 10° N visible
29 Aug 7.0 00:07:01 10° N 00:10:22 19° NE 00:11:32 17° ENE visible
29 Aug 5.9 01:48:55 10° NW 01:51:18 30° NW 01:51:18 30° NW visible
29 Aug 7.4 23:25:07 10° N 23:27:24 13° NNE 23:28:44 12° NE visible
30 Aug 6.3 01:06:23 10° NNW 01:08:33 27° NNW 01:08:33 27° NNW visible
30 Aug 7.9 19:12:06 10° NW 19:13:52 12° NNW 19:15:35 10° N visible
31 Aug 6.7 00:24:00 10° NNW 00:26:07 24° N 00:26:07 24° N visible
31 Aug 7.6 18:27:34 10° WNW 18:30:49 16° NW 18:33:56 10° N visible
31 Aug 7.1 23:41:44 10° NNW 23:43:53 20° N 23:43:53 20° N visible
01 Sep 7.3 22:59:41 10° N 23:01:47 16° NNE 23:01:47 16° NNE visible
02 Sep 7.4 00:41:22 10° NW 00:41:37 11° NW 00:41:37 11° NW visible
02 Sep 7.5 22:17:59 10° N 22:19:40 12° NNE 22:19:46 12° NNE visible
02 Sep 7.3 23:58:53 10° NNW 23:59:38 14° NNW 23:59:38 14° NNW visible
03 Sep 7.3 23:16:33 10° NNW 23:17:42 16° N 23:17:42 16° N visible
